| time (UTC) | temp F | wind direction | speed MPH | gust MPH | rain 1hr in | rain 24hr in | rain mn in | humidity % | barometer mb |
| 20260502130300 | 42 | 266 | 1.0 | 2.0 | 0.00 | 0.00 | 0.00 | 62 | 1018.7 |
| 20260502123746 | 41 | 211 | 2.0 | 4.0 | 0.00 | 0.00 | 0.00 | 65 | 1018.9 |
| 20260502123242 | 40 | 53 | 0.0 | 0.0 | 0.00 | 0.00 | 0.00 | 66 | 1018.9 |
| 20260502122739 | 40 | 35 | 4.0 | 4.0 | 0.00 | 0.00 | 0.00 | 69 | 1018.8 |
| 20260502122235 | 39 | 315 | 1.0 | 1.0 | 0.00 | 0.00 | 0.00 | 69 | 1018.7 |
| 20260502121734 | 39 | 50 | 2.0 | 3.0 | 0.00 | 0.00 | 0.00 | 69 | 1018.9 |
| 20260502121231 | 39 | 133 | 0.0 | 0.0 | 0.00 | 0.00 | 0.00 | 71 | 1018.9 |
| 20260502120727 | 38 | 116 | 0.0 | 0.0 | 0.00 | 0.00 | 0.00 | 73 | 1018.8 |
| 20260502120224 | 37 | 77 | 0.0 | 0.0 | 0.00 | 0.00 | 0.00 | 75 | 1018.7 |
| 20260502115722 | 37 | 74 | 0.0 | 0.0 | 0.00 | 0.00 | 0.00 | 76 | 1018.8 |
| 20260502115219 | 36 | 75 | 0.0 | 1.0 | 0.00 | 0.00 | 0.00 | 75 | 1018.8 |
| 20260502114714 | 36 | 74 | 0.0 | 0.0 | 0.00 | 0.00 | 0.00 | 81 | 1018.9 |
| 20260502114212 | 35 | 73 | 0.0 | 0.0 | 0.00 | 0.00 | 0.00 | 87 | 1018.6 |
| 20260502113709 | 34 | 73 | 0.0 | 0.0 | 0.00 | 0.00 | 0.00 | 95 | 1018.6 |
| 20260502113207 | 33 | 73 | 0.0 | 0.0 | 0.00 | 0.00 | 0.00 | 95 | 1018.6 |
| 20260502112705 | 31 | 73 | 0.0 | 0.0 | 0.00 | 0.00 | 0.00 | 95 | 1018.6 |
| 20260502112202 | 31 | 73 | 0.0 | 0.0 | 0.00 | 0.00 | 0.00 | 95 | 1018.7 |
| 20260502111659 | 30 | 73 | 0.0 | 0.0 | 0.00 | 0.00 | 0.00 | 95 | 1018.6 |
| 20260502111157 | 30 | 73 | 0.0 | 0.0 | 0.00 | 0.00 | 0.00 | 95 | 1018.6 |
| 20260502110654 | 29 | 73 | 0.0 | 0.0 | 0.00 | 0.00 | 0.00 | 94 | 1018.7 |
| 20260502110151 | 29 | 73 | 0.0 | 0.0 | 0.00 | 0.00 | 0.00 | 94 | 1018.4 |
| 20260502105649 | 29 | 73 | 0.0 | 0.0 | 0.00 | 0.00 | 0.00 | 94 | 1018.4 |
| 20260502105146 | 29 | 73 | 0.0 | 0.0 | 0.00 | 0.00 | 0.00 | 94 | 1018.5 |
| 20260502104643 | 29 | 74 | 0.0 | 0.0 | 0.00 | 0.00 | 0.00 | 94 | 1018.4 |
| 20260502104140 | 29 | 74 | 0.0 | 0.0 | 0.00 | 0.00 | 0.00 | 94 | 1018.4 |
| 20260502103638 | 29 | 74 | 0.0 | 0.0 | 0.00 | 0.00 | 0.00 | 94 | 1018.3 |
| 20260502103136 | 30 | 74 | 0.0 | 0.0 | 0.00 | 0.00 | 0.00 | 94 | 1018.3 |
| 20260502102632 | 30 | 74 | 0.0 | 0.0 | 0.00 | 0.00 | 0.00 | 94 | 1018.4 |
| 20260502102129 | 30 | 74 | 0.0 | 0.0 | 0.00 | 0.00 | 0.00 | 94 | 1018.0 |
| 20260502101627 | 30 | 74 | 0.0 | 0.0 | 0.00 | 0.00 | 0.00 | 94 | 1018.1 |
| 20260502101125 | 30 | 74 | 0.0 | 0.0 | 0.00 | 0.00 | 0.00 | 94 | 1018.3 |
| 20260502100624 | 30 | 74 | 0.0 | 0.0 | 0.00 | 0.00 | 0.00 | 94 | 1018.2 |
| 20260502100121 | 31 | 74 | 0.0 | 0.0 | 0.00 | 0.00 | 0.00 | 94 | 1018.1 |
| 20260502091055 | 32 | 74 | 0.0 | 0.0 | 0.00 | 0.00 | 0.00 | 93 | 1018.0 |
| 20260502090552 | 32 | 74 | 0.0 | 0.0 | 0.00 | 0.00 | 0.00 | 93 | 1017.8 |
| 20260502071446 | 35 | 74 | 0.0 | 0.0 | 0.00 | 0.00 | 0.00 | 88 | 1017.5 |
| 20260502070944 | 35 | 74 | 0.0 | 0.0 | 0.00 | 0.00 | 0.00 | 88 | 1017.6 |
| 20260502070442 | 36 | 73 | 0.0 | 0.0 | 0.00 | 0.00 | 0.00 | 87 | 1017.5 |
| 20260502065940 | 36 | 73 | 0.0 | 0.0 | 0.00 | 0.00 | 0.00 | 87 | 1017.3 |
| 20260502065439 | 36 | 74 | 0.0 | 0.0 | 0.00 | 0.00 | 0.00 | 86 | 1017.6 |
| 20260502064936 | 36 | 74 | 0.0 | 0.0 | 0.00 | 0.00 | 0.00 | 85 | 1017.7 |
| 20260502064434 | 36 | 74 | 0.0 | 0.0 | 0.00 | 0.00 | 0.00 | 85 | 1017.7 |
| 20260502063931 | 36 | 74 | 0.0 | 0.0 | 0.00 | 0.00 | 0.00 | 84 | 1017.6 |
| 20260502063429 | 36 | 74 | 0.0 | 0.0 | 0.00 | 0.00 | 0.00 | 84 | 1017.6 |
| 20260502062926 | 37 | 73 | 0.0 | 0.0 | 0.00 | 0.00 | 0.00 | 84 | 1017.5 |
| 20260502062423 | 37 | 74 | 0.0 | 0.0 | 0.00 | 0.00 | 0.00 | 84 | 1017.7 |
| 20260502061922 | 37 | 74 | 0.0 | 0.0 | 0.00 | 0.00 | 0.00 | 84 | 1017.8 |
| 20260502061420 | 37 | 73 | 0.0 | 0.0 | 0.00 | 0.00 | 0.00 | 83 | 1017.8 |
| 20260502060915 | 37 | 73 | 0.0 | 0.0 | 0.00 | 0.00 | 0.00 | 83 | 1017.8 |
| 20260502060410 | 37 | 73 | 0.0 | 0.0 | 0.00 | 0.00 | 0.00 | 82 | 1017.7 |
| 20260502055908 | 37 | 73 | 0.0 | 0.0 | 0.00 | 0.00 | 0.00 | 81 | 1017.8 |
| 20260502055405 | 37 | 73 | 0.0 | 0.0 | 0.00 | 0.00 | 0.00 | 81 | 1018.1 |
| 20260502054900 | 37 | 74 | 0.0 | 0.0 | 0.00 | 0.00 | 0.00 | 80 | 1017.9 |
| 20260502054357 | 37 | 74 | 0.0 | 0.0 | 0.00 | 0.00 | 0.00 | 81 | 1017.7 |
| 20260502053854 | 37 | 74 | 0.0 | 0.0 | 0.00 | 0.00 | 0.00 | 80 | 1017.9 |
| 20260502053351 | 37 | 74 | 0.0 | 0.0 | 0.00 | 0.00 | 0.00 | 81 | 1017.7 |
| 20260502052849 | 37 | 74 | 0.0 | 0.0 | 0.00 | 0.00 | 0.00 | 79 | 1017.9 |
| 20260502052347 | 37 | 74 | 0.0 | 0.0 | 0.00 | 0.00 | 0.00 | 80 | 1017.8 |
| 20260502051844 | 37 | 73 | 0.0 | 0.0 | 0.00 | 0.00 | 0.00 | 80 | 1017.8 |
| 20260502051343 | 38 | 73 | 0.0 | 0.0 | 0.00 | 0.00 | 0.00 | 78 | 1017.8 |
| 20260502050839 | 38 | 73 | 0.0 | 0.0 | 0.00 | 0.00 | 0.00 | 78 | 1017.8 |
| 20260502050335 | 38 | 73 | 0.0 | 0.0 | 0.00 | 0.00 | 0.00 | 77 | 1017.7 |
| 20260502045832 | 38 | 73 | 0.0 | 0.0 | 0.00 | 0.00 | 0.00 | 77 | 1017.7 |
| 20260502045329 | 38 | 74 | 1.0 | 1.0 | 0.00 | 0.00 | 0.00 | 77 | 1017.7 |
| 20260502044826 | 38 | 73 | 0.0 | 0.0 | 0.00 | 0.00 | 0.00 | 76 | 1017.6 |
| 20260502044322 | 39 | 55 | 0.0 | 0.0 | 0.00 | 0.00 | 0.00 | 75 | 1017.8 |
| 20260502043820 | 39 | 56 | 1.0 | 1.0 | 0.00 | 0.00 | 0.00 | 75 | 1017.6 |
| 20260502043317 | 39 | 54 | 0.0 | 0.0 | 0.00 | 0.00 | 0.00 | 74 | 1017.7 |
| 20260502042817 | 39 | 40 | 0.0 | 0.0 | 0.00 | 0.00 | 0.00 | 73 | 1017.5 |
| 20260502042314 | 39 | 39 | 1.0 | 1.0 | 0.00 | 0.00 | 0.00 | 73 | 1017.6 |
| 20260502041812 | 39 | 70 | 1.0 | 1.0 | 0.00 | 0.00 | 0.00 | 72 | 1017.6 |
| 20260502041309 | 39 | 73 | 0.0 | 0.0 | 0.00 | 0.00 | 0.00 | 72 | 1017.3 |
| 20260502040806 | 40 | 75 | 0.0 | 1.0 | 0.00 | 0.00 | 0.00 | 71 | 1017.2 |
| 20260502040303 | 40 | 76 | 2.0 | 2.0 | 0.00 | 0.00 | 0.00 | 70 | 1017.3 |
| 20260502035759 | 40 | 70 | 0.0 | 0.0 | 0.00 | 0.00 | 0.00 | 69 | 1017.1 |
| 20260502035255 | 40 | 71 | 1.0 | 1.0 | 0.00 | 0.00 | 0.00 | 68 | 1017.1 |
| 20260502034752 | 40 | 66 | 2.0 | 2.0 | 0.00 | 0.00 | 0.00 | 67 | 1017.2 |
| 20260502034251 | 40 | 64 | 1.0 | 1.0 | 0.00 | 0.00 | 0.00 | 66 | 1017.5 |
| 20260502033749 | 40 | 62 | 1.0 | 1.0 | 0.00 | 0.00 | 0.00 | 64 | 1017.3 |
| 20260502033246 | 40 | 13 | 1.0 | 1.0 | 0.00 | 0.00 | 0.00 | 63 | 1017.3 |
| 20260502032743 | 40 | 62 | 1.0 | 1.0 | 0.00 | 0.00 | 0.00 | 57 | 1017.1 |
| 20260502032239 | 40 | 62 | 0.0 | 0.0 | 0.00 | 0.00 | 0.00 | 57 | 1017.2 |
| 20260502031737 | 40 | 65 | 0.0 | 0.0 | 0.00 | 0.00 | 0.00 | 58 | 1017.0 |
| 20260502031235 | 40 | 65 | 0.0 | 0.0 | 0.00 | 0.00 | 0.00 | 55 | 1017.2 |
| 20260502030733 | 41 | 68 | 0.0 | 0.0 | 0.00 | 0.00 | 0.00 | 56 | 1017.1 |
| 20260502030231 | 41 | 127 | 0.0 | 0.0 | 0.00 | 0.00 | 0.00 | 55 | 1017.0 |
| 20260502025728 | 41 | 137 | 1.0 | 1.0 | 0.00 | 0.00 | 0.00 | 59 | 1017.0 |
| 20260502025226 | 41 | 138 | 0.0 | 0.0 | 0.00 | 0.00 | 0.00 | 59 | 1017.0 |
| 20260502024723 | 41 | 107 | 1.0 | 1.0 | 0.00 | 0.00 | 0.00 | 56 | 1016.9 |
| 20260502024221 | 41 | 74 | 1.0 | 2.0 | 0.00 | 0.00 | 0.00 | 57 | 1017.1 |
| 20260502023719 | 41 | 75 | 0.0 | 0.0 | 0.00 | 0.00 | 0.00 | 54 | 1017.0 |
| 20260502023216 | 41 | 47 | 0.0 | 0.0 | 0.00 | 0.00 | 0.00 | 55 | 1016.9 |
| 20260502022714 | 41 | 46 | 0.0 | 0.0 | 0.00 | 0.00 | 0.00 | 56 | 1016.9 |
| 20260502022210 | 41 | 40 | 1.0 | 1.0 | 0.00 | 0.00 | 0.00 | 53 | 1016.8 |
| 20260502021707 | 41 | 65 | 1.0 | 1.0 | 0.00 | 0.00 | 0.00 | 54 | 1016.7 |
| 20260502021204 | 41 | 28 | 0.0 | 0.0 | 0.00 | 0.00 | 0.00 | 55 | 1016.8 |
| 20260502020701 | 41 | 54 | 1.0 | 1.0 | 0.00 | 0.00 | 0.00 | 56 | 1016.7 |
| 20260502020158 | 41 | 153 | 3.0 | 3.0 | 0.00 | 0.00 | 0.00 | 52 | 1016.8 |
| 20260502015656 | 41 | 91 | 1.0 | 1.0 | 0.00 | 0.00 | 0.00 | 54 | 1016.8 |
| 20260502015152 | 41 | 76 | 1.0 | 1.0 | 0.00 | 0.00 | 0.00 | 54 | 1016.6 |
| 20260502014650 | 41 | 92 | 0.0 | 0.0 | 0.00 | 0.00 | 0.00 | 58 | 1016.7 |
| 20260502014146 | 41 | 75 | 0.0 | 0.0 | 0.00 | 0.00 | 0.00 | 56 | 1016.5 |
| 20260502013642 | 41 | 70 | 0.0 | 0.0 | 0.00 | 0.00 | 0.00 | 58 | 1016.6 |
| 20260502013138 | 40 | 67 | 1.0 | 1.0 | 0.00 | 0.00 | 0.00 | 65 | 1016.9 |
| 20260502012636 | 41 | 57 | 0.0 | 0.0 | 0.00 | 0.00 | 0.00 | 61 | 1016.8 |
| 20260502012134 | 41 | 57 | 0.0 | 0.0 | 0.00 | 0.00 | 0.00 | 63 | 1016.6 |
| 20260502011630 | 41 | 57 | 0.0 | 0.0 | 0.00 | 0.00 | 0.00 | 57 | 1016.6 |
| 20260502011126 | 41 | 57 | 0.0 | 0.0 | 0.00 | 0.00 | 0.00 | 57 | 1016.5 |
| 20260502010624 | 41 | 55 | 1.0 | 1.0 | 0.00 | 0.00 | 0.00 | 57 | 1016.6 |
| 20260502010120 | 42 | 55 | 0.0 | 0.0 | 0.00 | 0.00 | 0.00 | 57 | 1016.4 |
| 20260502005618 | 42 | 52 | 0.0 | 1.0 | 0.00 | 0.00 | 0.00 | 56 | 1016.5 |
| 20260502005115 | 42 | 30 | 2.0 | 2.0 | 0.00 | 0.00 | 0.00 | 54 | 1016.4 |
| 20260502004610 | 42 | 62 | 1.0 | 1.0 | 0.00 | 0.00 | 0.00 | 56 | 1016.3 |
| 20260502004108 | 42 | 73 | 4.0 | 4.0 | 0.00 | 0.00 | 0.00 | 54 | 1016.2 |
| 20260502003606 | 43 | 17 | 2.0 | 2.0 | 0.00 | 0.00 | 0.00 | 58 | 1016.1 |
| 20260502003102 | 43 | 55 | 1.0 | 1.0 | 0.00 | 0.00 | 0.00 | 56 | 1016.1 |
| 20260502002558 | 43 | 51 | 0.0 | 0.0 | 0.00 | 0.00 | 0.00 | 57 | 1016.0 |
| 20260502002056 | 43 | 55 | 0.0 | 0.0 | 0.00 | 0.00 | 0.00 | 56 | 1016.0 |
| 20260502001554 | 43 | 55 | 1.0 | 1.0 | 0.00 | 0.00 | 0.00 | 54 | 1015.9 |
| 20260502001050 | 44 | 62 | 1.0 | 2.0 | 0.00 | 0.00 | 0.00 | 53 | 1015.8 |
| 20260502000549 | 44 | 60 | 1.0 | 1.0 | 0.00 | 0.00 | 0.00 | 51 | 1016.0 |
| 20260502000046 | 44 | 55 | 0.0 | 0.0 | 0.00 | 0.00 | 0.00 | 55 | 1015.6 |
| 20260501235541 | 44 | 43 | 0.0 | 0.0 | 0.00 | 0.00 | 0.00 | 51 | 1015.6 |
| 20260501235038 | 44 | 49 | 1.0 | 2.0 | 0.00 | 0.00 | 0.00 | 51 | 1015.7 |
| 20260501234533 | 44 | 75 | 2.0 | 3.0 | 0.00 | 0.00 | 0.00 | 48 | 1015.6 |
| 20260501234032 | 45 | 92 | 0.0 | 0.0 | 0.00 | 0.00 | 0.00 | 50 | 1015.6 |
| 20260501233529 | 45 | 175 | 0.0 | 0.0 | 0.00 | 0.00 | 0.00 | 51 | 1015.5 |
| 20260501233026 | 45 | 175 | 0.0 | 0.0 | 0.00 | 0.00 | 0.00 | 50 | 1015.7 |
| 20260501232522 | 45 | 202 | 1.0 | 1.0 | 0.00 | 0.00 | 0.00 | 49 | 1015.5 |
| 20260501232020 | 45 | 24 | 0.0 | 1.0 | 0.00 | 0.00 | 0.00 | 49 | 1015.6 |
| 20260501231517 | 45 | 261 | 2.0 | 2.0 | 0.00 | 0.00 | 0.00 | 48 | 1015.4 |
| 20260501231015 | 46 | 209 | 1.0 | 2.0 | 0.00 | 0.00 | 0.00 | 50 | 1015.4 |
| 20260501230514 | 46 | 83 | 1.0 | 1.0 | 0.00 | 0.00 | 0.00 | 48 | 1015.6 |
| 20260501230011 | 46 | 75 | 0.0 | 1.0 | 0.00 | 0.00 | 0.00 | 54 | 1015.2 |
| 20260501225510 | 46 | 74 | 0.0 | 0.0 | 0.00 | 0.00 | 0.00 | 55 | 1015.4 |
| 20260501225004 | 46 | 72 | 1.0 | 1.0 | 0.00 | 0.00 | 0.00 | 50 | 1015.3 |
| 20260501224503 | 46 | 71 | 0.0 | 0.0 | 0.00 | 0.00 | 0.00 | 54 | 1015.3 |
| 20260501223959 | 46 | 72 | 0.0 | 0.0 | 0.00 | 0.00 | 0.00 | 51 | 1015.4 |
| 20260501223455 | 45 | 72 | 0.0 | 0.0 | 0.00 | 0.00 | 0.00 | 53 | 1015.4 |
| 20260501222951 | 45 | 71 | 1.0 | 2.0 | 0.00 | 0.00 | 0.00 | 54 | 1015.6 |
| 20260501222448 | 45 | 80 | 0.0 | 0.0 | 0.00 | 0.00 | 0.00 | 55 | 1015.3 |
| 20260501221944 | 45 | 78 | 0.0 | 0.0 | 0.00 | 0.00 | 0.00 | 57 | 1015.4 |
| 20260501221442 | 45 | 78 | 0.0 | 0.0 | 0.00 | 0.00 | 0.00 | 56 | 1015.4 |
| 20260501220940 | 45 | 77 | 1.0 | 0.0 | 0.00 | 0.00 | 0.00 | 55 | 1015.3 |
| 20260501220437 | 45 | 73 | 0.0 | 1.0 | 0.00 | 0.00 | 0.00 | 54 | 1015.4 |
| 20260501215932 | 45 | 58 | 1.0 | 1.0 | 0.00 | 0.00 | 0.00 | 55 | 1015.3 |
| 20260501215430 | 45 | 67 | 1.0 | 1.0 | 0.00 | 0.00 | 0.00 | 56 | 1015.2 |
| 20260501214925 | 46 | 61 | 0.0 | 1.0 | 0.00 | 0.00 | 0.00 | 54 | 1015.3 |
| 20260501214421 | 46 | 63 | 0.0 | 0.0 | 0.00 | 0.00 | 0.00 | 55 | 1015.2 |
| 20260501213916 | 46 | 43 | 2.0 | 2.0 | 0.00 | 0.00 | 0.00 | 52 | 1015.4 |
| 20260501213414 | 46 | 116 | 1.0 | 1.0 | 0.00 | 0.00 | 0.00 | 56 | 1015.4 |
| 20260501212909 | 46 | 210 | 1.0 | 1.0 | 0.00 | 0.00 | 0.00 | 55 | 1015.2 |
| 20260501212406 | 46 | 208 | 0.0 | 1.0 | 0.00 | 0.00 | 0.00 | 51 | 1015.3 |
| 20260501211903 | 46 | 64 | 2.0 | 2.0 | 0.00 | 0.00 | 0.00 | 52 | 1015.2 |
| 20260501211400 | 46 | 142 | 0.0 | 0.0 | 0.00 | 0.00 | 0.00 | 54 | 1015.1 |
| 20260501210858 | 46 | 133 | 0.0 | 0.0 | 0.00 | 0.00 | 0.00 | 52 | 1015.0 |
| 20260501210354 | 45 | 161 | 2.0 | 3.0 | 0.00 | 0.00 | 0.00 | 53 | 1015.2 |
| 20260501205851 | 45 | 276 | 2.0 | 2.0 | 0.00 | 0.00 | 0.00 | 57 | 1015.1 |
| 20260501205348 | 45 | 183 | 1.0 | 1.0 | 0.00 | 0.00 | 0.00 | 56 | 1015.2 |
| 20260501204845 | 46 | 176 | 1.0 | 1.0 | 0.00 | 0.00 | 0.00 | 54 | 1015.0 |
| 20260501204341 | 46 | 65 | 1.0 | 2.0 | 0.00 | 0.00 | 0.00 | 55 | 1015.1 |
| 20260501203837 | 46 | 78 | 1.0 | 1.0 | 0.00 | 0.00 | 0.00 | 56 | 1015.1 |
| 20260501203335 | 46 | 1 | 1.0 | 1.0 | 0.00 | 0.00 | 0.00 | 51 | 1014.9 |
| 20260501202831 | 46 | 165 | 1.0 | 1.0 | 0.00 | 0.00 | 0.00 | 53 | 1015.1 |
| 20260501202328 | 47 | 252 | 2.0 | 2.0 | 0.00 | 0.00 | 0.00 | 51 | 1015.1 |
| 20260501201825 | 47 | 199 | 2.0 | 2.0 | 0.00 | 0.00 | 0.00 | 51 | 1015.0 |
| 20260501201322 | 47 | 166 | 4.0 | 4.0 | 0.00 | 0.00 | 0.00 | 50 | 1015.1 |
| 20260501200819 | 46 | 196 | 3.0 | 3.0 | 0.00 | 0.00 | 0.00 | 50 | 1014.9 |
| 20260501200316 | 46 | 179 | 0.0 | 0.0 | 0.00 | 0.00 | 0.00 | 51 | 1014.7 |
| 20260501195814 | 46 | 216 | 0.0 | 0.0 | 0.00 | 0.00 | 0.00 | 52 | 1014.9 |
| 20260501195309 | 46 | 51 | 0.0 | 1.0 | 0.00 | 0.00 | 0.00 | 50 | 1015.0 |
| 20260501194805 | 46 | 54 | 1.0 | 1.0 | 0.00 | 0.00 | 0.00 | 55 | 1015.1 |
| 20260501194301 | 46 | 51 | 1.0 | 2.0 | 0.00 | 0.00 | 0.00 | 54 | 1015.0 |
| 20260501193758 | 46 | 133 | 1.0 | 1.0 | 0.00 | 0.00 | 0.00 | 53 | 1015.1 |
| 20260501193257 | 46 | 214 | 1.0 | 1.0 | 0.00 | 0.00 | 0.00 | 51 | 1015.0 |
| 20260501192753 | 46 | 60 | 1.0 | 1.0 | 0.00 | 0.00 | 0.00 | 53 | 1014.8 |
| 20260501192250 | 45 | 32 | 1.0 | 1.0 | 0.00 | 0.00 | 0.00 | 54 | 1014.8 |
| 20260501191748 | 46 | 40 | 2.0 | 2.0 | 0.00 | 0.00 | 0.00 | 51 | 1015.0 |
| 20260501191245 | 46 | 49 | 0.0 | 0.0 | 0.00 | 0.00 | 0.00 | 52 | 1014.9 |
| 20260501190741 | 47 | 60 | 1.0 | 1.0 | 0.00 | 0.00 | 0.00 | 50 | 1014.7 |
| 20260501190237 | 48 | 51 | 3.0 | 3.0 | 0.00 | 0.00 | 0.00 | 45 | 1014.7 |
| 20260501185733 | 48 | 257 | 2.0 | 3.0 | 0.00 | 0.00 | 0.00 | 46 | 1014.4 |
| 20260501185229 | 48 | 293 | 2.0 | 2.0 | 0.00 | 0.00 | 0.00 | 46 | 1014.6 |
| 20260501184725 | 48 | 303 | 2.0 | 3.0 | 0.00 | 0.00 | 0.00 | 46 | 1014.8 |
| 20260501184221 | 47 | 53 | 2.0 | 3.0 | 0.00 | 0.00 | 0.00 | 48 | 1014.5 |
| 20260501183717 | 47 | 69 | 2.0 | 2.0 | 0.00 | 0.00 | 0.00 | 46 | 1014.6 |
| 20260501183214 | 48 | 223 | 5.0 | 6.0 | 0.00 | 0.00 | 0.00 | 46 | 1014.7 |
| 20260501182710 | 48 | 59 | 3.0 | 3.0 | 0.00 | 0.00 | 0.00 | 47 | 1014.6 |
| 20260501182207 | 48 | 99 | 1.0 | 1.0 | 0.00 | 0.00 | 0.00 | 49 | 1014.5 |
| 20260501181704 | 48 | 55 | 1.0 | 1.0 | 0.00 | 0.00 | 0.00 | 49 | 1014.5 |
| 20260501181201 | 46 | 65 | 2.0 | 3.0 | 0.00 | 0.00 | 0.00 | 50 | 1014.6 |
| 20260501180659 | 46 | 64 | 2.0 | 3.0 | 0.00 | 0.00 | 0.00 | 51 | 1014.7 |
| 20260501180155 | 47 | 76 | 2.0 | 2.0 | 0.00 | 0.00 | 0.00 | 52 | 1014.5 |
| 20260501175651 | 48 | 90 | 1.0 | 1.0 | 0.00 | 0.00 | 0.00 | 56 | 1014.5 |
| 20260501175149 | 48 | 13 | 3.0 | 3.0 | 0.00 | 0.00 | 0.00 | 51 | 1014.4 |
| 20260501174645 | 48 | 308 | 1.0 | 1.0 | 0.00 | 0.00 | 0.00 | 50 | 1014.5 |
| 20260501174143 | 48 | 43 | 0.0 | 0.0 | 0.00 | 0.00 | 0.00 | 48 | 1014.6 |
| 20260501173640 | 47 | 8 | 2.0 | 2.0 | 0.00 | 0.00 | 0.00 | 52 | 1014.4 |
| 20260501173137 | 46 | 351 | 2.0 | 4.0 | 0.00 | 0.00 | 0.00 | 55 | 1014.6 |
| 20260501172633 | 47 | 55 | 3.0 | 6.0 | 0.00 | 0.00 | 0.00 | 53 | 1014.8 |
| 20260501172128 | 49 | 64 | 4.0 | 6.0 | 0.00 | 0.00 | 0.00 | 50 | 1014.6 |
| 20260501171624 | 48 | 352 | 2.0 | 2.0 | 0.00 | 0.00 | 0.00 | 55 | 1014.6 |
| 20260501171121 | 47 | 270 | 2.0 | 2.0 | 0.00 | 0.00 | 0.00 | 52 | 1014.6 |
| 20260501170619 | 47 | 34 | 2.0 | 2.0 | 0.00 | 0.00 | 0.00 | 55 | 1014.7 |
| 20260501170115 | 47 | 61 | 1.0 | 3.0 | 0.00 | 0.00 | 0.00 | 52 | 1014.6 |
| 20260501165612 | 48 | 210 | 1.0 | 1.0 | 0.00 | 0.00 | 0.00 | 50 | 1014.8 |
| 20260501165110 | 48 | 58 | 4.0 | 4.0 | 0.00 | 0.00 | 0.00 | 53 | 1014.8 |
| 20260501164608 | 49 | 68 | 2.0 | 2.0 | 0.00 | 0.00 | 0.00 | 51 | 1014.8 |
| 20260501164104 | 48 | 68 | 2.0 | 3.0 | 0.00 | 0.00 | 0.00 | 51 | 1014.8 |
| 20260501163601 | 47 | 307 | 1.0 | 1.0 | 0.00 | 0.00 | 0.00 | 54 | 1015.0 |
| 20260501163058 | 48 | 76 | 3.0 | 4.0 | 0.00 | 0.00 | 0.00 | 53 | 1014.8 |
| 20260501162554 | 49 | 52 | 4.0 | 6.0 | 0.00 | 0.00 | 0.00 | 51 | 1014.7 |
| 20260501162051 | 48 | 51 | 6.0 | 9.0 | 0.00 | 0.00 | 0.00 | 52 | 1014.9 |
| 20260501161548 | 47 | 84 | 1.0 | 1.0 | 0.00 | 0.00 | 0.00 | 54 | 1014.9 |
| 20260501161045 | 47 | 117 | 0.0 | 1.0 | 0.00 | 0.00 | 0.00 | 54 | 1014.8 |
| 20260501160542 | 47 | 77 | 4.0 | 7.0 | 0.00 | 0.00 | 0.00 | 52 | 1014.8 |
| 20260501160039 | 47 | 268 | 4.0 | 4.0 | 0.00 | 0.00 | 0.00 | 55 | 1014.6 |
| 20260501155535 | 48 | 67 | 2.0 | 2.0 | 0.00 | 0.00 | 0.00 | 55 | 1014.6 |
| 20260501155033 | 48 | 79 | 2.0 | 3.0 | 0.00 | 0.00 | 0.00 | 56 | 1014.6 |
| 20260501154530 | 48 | 337 | 2.0 | 2.0 | 0.00 | 0.00 | 0.00 | 54 | 1014.8 |
| 20260501154027 | 49 | 77 | 1.0 | 1.0 | 0.00 | 0.00 | 0.00 | 52 | 1014.6 |
| 20260501153524 | 48 | 54 | 3.0 | 4.0 | 0.00 | 0.00 | 0.00 | 54 | 1014.6 |
| 20260501153020 | 47 | 65 | 6.0 | 7.0 | 0.00 | 0.00 | 0.00 | 55 | 1014.7 |
| 20260501152517 | 48 | 56 | 2.0 | 2.0 | 0.00 | 0.00 | 0.00 | 55 | 1014.7 |
| 20260501152015 | 47 | 58 | 6.0 | 6.0 | 0.00 | 0.00 | 0.00 | 59 | 1014.6 |
| 20260501151512 | 48 | 55 | 1.0 | 2.0 | 0.00 | 0.00 | 0.00 | 59 | 1014.9 |
| 20260501151009 | 48 | 60 | 2.0 | 3.0 | 0.00 | 0.00 | 0.00 | 61 | 1014.6 |
| 20260501150503 | 47 | 88 | 3.0 | 2.0 | 0.00 | 0.00 | 0.00 | 56 | 1014.7 |
| 20260501150000 | 46 | 61 | 1.0 | 1.0 | 0.00 | 0.00 | 0.00 | 59 | 1014.8 |
| 20260501145456 | 46 | 53 | 2.0 | 3.0 | 0.00 | 0.00 | 0.00 | 60 | 1014.8 |
| 20260501144955 | 46 | 68 | 1.0 | 2.0 | 0.00 | 0.00 | 0.00 | 63 | 1014.5 |
| 20260501144450 | 46 | 54 | 1.0 | 1.0 | 0.00 | 0.00 | 0.00 | 63 | 1014.9 |
| 20260501143946 | 46 | 61 | 2.0 | 2.0 | 0.00 | 0.00 | 0.00 | 66 | 1014.7 |
| 20260501143443 | 46 | 57 | 1.0 | 1.0 | 0.00 | 0.00 | 0.00 | 66 | 1014.8 |
| 20260501142939 | 46 | 74 | 1.0 | 1.0 | 0.00 | 0.00 | 0.00 | 60 | 1014.7 |